FW3867 Weather Reports


time (UTC)temp
F
wind
direction
speed
knots
gust
knots
rain 1hr
in
rain 24hr
in
rain mn
in
humidity
%
barometer
mb
20260504214533 71 269 13.0 20.0 0.00 0.00 0.00 32 1005.7
20260504213053 71 286 9.6 15.6 0.00 0.00 0.00 32 1005.7
20260504211530 70 264 7.8 15.6 0.00 0.00 0.00 33 1005.7
20260504210027 71 220 8.7 21.7 0.00 0.00 0.00 35 1005.8
20260504204526 70 267 9.6 20.9 0.00 0.00 0.00 35 1006.0
20260504203023 71 271 12.2 18.2 0.00 0.00 0.00 34 1006.3
20260504201525 71 244 7.8 17.4 0.00 0.00 0.00 35 1006.3
20260504200051 70 287 13.0 22.6 0.00 0.00 0.00 34 1006.6
20260504194559 69 257 10.4 21.7 0.00 0.00 0.00 36 1006.8
20260504193051 69 299 12.2 20.9 0.00 0.00 0.00 34 1007.0
20260504191538 69 269 10.4 17.4 0.00 0.00 0.00 40 1007.1
20260504190034 67 250 8.7 18.2 0.00 0.00 0.00 41 1007.3
20260504184533 67 248 9.6 24.3 0.00 0.00 0.00 41 1007.4
20260504183027 67 294 14.8 20.0 0.00 0.00 0.00 41 1007.6
20260504181527 67 270 13.9 26.1 0.00 0.00 0.00 42 1007.6
20260504180022 67 263 11.3 27.8 0.00 0.00 0.00 42 1007.8
20260504174522 66 272 13.0 26.1 0.00 0.00 0.00 44 1008.0
20260504173030 65 275 13.0 26.1 0.00 0.00 0.00 45 1007.9
20260504171520 65 224 13.9 23.5 0.00 0.00 0.00 47 1008.2
20260504081506 47 238 10.4 17.4 0.00 0.00 0.00 59 1011.1
20260504044537 49 281 11.3 17.4 0.00 0.00 0.00 55 1011.9
20260504043033 49 250 8.7 14.8 0.00 0.00 0.00 55 1012.0
20260504041525 48 246 9.6 13.9 0.00 0.00 0.00 55 1012.1
20260504040025 49 360 6.1 11.3 0.00 0.00 0.00 54 1012.2
20260504034533 50 360 7.8 10.4 0.00 0.00 0.00 52 1012.2
20260504033103 50 360 6.1 9.6 0.00 0.00 0.00 51 1012.2
20260504031554 51 360 7.0 9.6 0.00 0.00 0.00 49 1012.4
20260504030051 51 360 5.2 9.6 0.00 0.00 0.00 49 1012.6
20260504024551 51 360 5.2 8.7 0.00 0.00 0.00 48 1012.8
20260504023050 51 360 6.1 9.6 0.00 0.00 0.00 47 1012.7
20260504021550 52 360 5.2 9.6 0.00 0.00 0.00 46 1012.6
20260504020048 52 270 2.6 9.6 0.00 0.00 0.00 46 1012.8
20260504014549 52 360 4.3 9.6 0.00 0.00 0.00 45 1012.9
20260504013050 52 360 2.6 5.2 0.00 0.00 0.00 45 1012.8
20260504011548 52 360 6.1 12.2 0.00 0.00 0.00 44 1012.7
20260504010015 53 360 4.3 13.0 0.00 0.00 0.00 44 1012.6
20260504004515 53 313 8.7 20.9 0.00 0.00 0.00 43 1012.6
20260504003011 52 284 14.8 26.1 0.00 0.00 0.00 45 1012.4
20260504001511 53 308 7.0 12.2 0.00 0.00 0.00 45 1012.3
20260504000010 53 267 3.5 7.0 0.00 0.00 0.00 47 1012.2
20260503234510 53 301 3.5 14.8 0.00 0.00 0.00 47 1012.1
20260503233007 53 344 6.1 17.4 0.00 0.00 0.00 47 1012.3
20260503231506 53 327 12.2 18.2 0.00 0.00 0.00 46 1012.3
20260503230006 53 312 9.6 25.2 0.00 0.00 0.00 45 1012.3
20260503224505 54 276 12.2 19.1 0.00 0.00 0.00 44 1011.9
20260503223100 54 287 6.1 13.9 0.00 0.00 0.00 45 1011.8
20260503221557 53 277 7.8 17.4 0.00 0.00 0.00 46 1011.9
20260503220110 53 269 9.6 19.1 0.00 0.00 0.00 46 1012.2